[[[{"header":{"parameterUnit":"kt","parameterCategory":2,"dx":1,"dy":1,"la1":30.253999710083008,"la2":30.299108505249023,"lo1":-89.0895004272461,"lo2":-89.04439544677734,"nx":28,"ny":28,"refTime":"2022-10-06T21:00:00:Z","depth":0,"parameterNumber":1,"parameterNumberName":"U-component_of_WINDS"},"data":[1.8914,1.9053,1.9132,1.9329,1.9433,1.9582,1.9661,1.9772,1.988,2.0069,2.0192,2.0287,2.0429,2.0596,2.0735,2.0776,2.0829,2.0821,2.087,2.083,2.083,2.083,2.0802,2.0831,2.0831,2.0899,2.0899,2.09,1.8881,1.8984,1.9111,1.9287,1.9397,1.9453,1.9598,1.9687,1.9819,1.9954,2.0079,2.0252,2.04,2.0547,2.0704,2.0773,2.0809,2.081,2.0806,2.0828,2.0789,2.0758,2.0779,2.0779,2.0779,2.0779,2.0779,2.0779,1.8842,1.8922,1.9074,1.9213,1.9323,1.9441,1.9532,1.9647,1.9773,1.9943,2.0015,2.0166,2.0318,2.0546,2.0642,2.0765,2.0778,2.0805,2.0812,2.0817,2.0811,2.0705,2.0795,2.0795,2.0796,2.0796,2.0796,0,1.8837,1.8898,1.9024,1.9174,1.928,1.9404,1.9532,1.9591,1.9748,1.9845,1.9994,2.0094,2.0292,2.0442,2.0607,2.0703,2.0772,2.0788,2.0807,2.0774,2.0724,2.0753,2.0687,2.0785,2.0785,2.0785,2.0785,2.0785,1.8804,1.8888,1.9085,1.9164,1.9253,1.9377,1.9468,1.96,1.9691,1.9869,1.9935,2.0087,2.0215,2.0442,2.0577,2.0726,2.0761,2.079,2.0784,2.075,2.0763,2.0757,2.0767,2.0788,2.0787,2.0787,2.0787,0,1.8779,1.8907,1.9062,1.925,1.93,1.9382,1.9544,1.963,1.9732,1.9866,1.9905,2.0066,2.0211,2.0342,2.0534,2.0599,2.0741,2.0771,2.069,2.0703,2.0742,2.0737,2.0847,2.0869,2.0839,2.0839,2.0839,0,1.8801,1.8906,1.9092,1.9175,1.9297,1.9426,1.9544,1.9643,1.9775,1.9881,1.9979,2.0078,2.023,2.0349,2.0444,2.0583,2.0619,2.0677,2.0701,2.0669,2.0661,2.072,2.0718,2.0751,2.0751,2.075,2.0749,0,1.8747,1.8969,1.9105,1.9177,1.9387,1.9449,1.954,1.9687,1.9775,1.9911,1.997,2.0119,2.02,2.0315,2.0436,2.0427,2.0609,2.0622,2.0668,2.0665,2.0701,2.0697,2.0762,2.0749,2.0748,2.0748,2.0748,0,1.8785,1.8917,1.9094,1.9272,1.9325,1.9415,1.957,1.9677,1.9825,1.9891,1.9999,2.008,2.0211,2.0214,2.0398,2.0352,2.0428,2.0496,2.0502,2.0521,2.0522,2.0541,2.0589,2.0599,2.054,2.0538,2.0537,0,1.869,1.8902,1.9013,1.918,1.9296,1.9398,1.9501,1.9629,1.9724,1.9839,1.9946,2.0075,2.0105,2.0164,2.0238,2.0353,2.0413,2.0349,2.0516,2.0521,2.0473,2.0519,2.0493,2.0563,2.0516,2.0519,2.052,0,1.8631,1.8884,1.8905,1.8992,1.918,1.9278,1.9395,1.9551,1.9621,1.9754,1.9857,2.0042,2.0073,2.0169,2.025,2.032,2.0377,2.0344,2.035,2.0346,2.0517,2.0492,2.0503,2.0417,2.0419,2.0422,2.0504,0,1.8661,1.8783,1.8847,1.9032,1.9128,1.9238,1.9375,1.9459,1.9527,1.9625,1.9779,1.9918,2.0078,2.0125,2.0192,2.0309,2.031,2.0341,2.0354,2.0382,2.0413,2.0426,2.0297,2.0299,2.03,2.03,0,0,1.8538,1.8715,1.8833,1.895,1.9038,1.9141,1.9247,1.9346,1.9541,1.96,1.9609,1.9888,2.0001,2.0174,2.0193,2.0257,2.0292,2.0276,2.0368,2.0375,2.0381,2.0412,2.0422,2.0302,2.0303,2.0303,2.0303,0,1.8577,1.8686,1.8788,1.8894,1.9056,1.9154,1.9178,1.9357,1.9424,1.9574,1.9659,1.9767,1.9986,2.0096,2.018,2.0258,2.0317,2.0297,2.0293,2.0373,2.0378,2.0384,2.0414,2.0423,2.0306,2.0306,2.0306,0,1.8545,1.8675,1.8738,1.8941,1.9047,1.9164,1.9211,1.9331,1.942,1.9528,1.9675,1.9771,1.9928,2.0072,2.0142,2.0151,2.0332,2.0298,2.0296,2.0307,2.0391,2.0397,2.0403,2.0327,2.0327,2.0326,0,0,1.856,1.8673,1.8853,1.8959,1.902,1.9167,1.9242,1.9318,1.9455,1.9509,1.9633,1.9765,1.9895,1.9977,2.0105,2.0243,2.0287,2.0295,2.0294,2.0293,2.0303,2.0386,2.0392,2.0325,2.0324,2.0324,0,0,1.8568,1.878,1.8824,1.8963,1.909,1.9275,1.9336,1.9395,1.9523,1.9526,1.9661,1.9701,1.9839,1.9929,1.9888,2.0112,2.0123,2.0135,2.0048,2.0048,2.0048,2.0023,1.9957,0,0,0,0,0,1.8676,1.8754,1.8791,1.8834,1.9091,1.9254,1.9288,1.94,1.9405,1.9451,1.9564,1.9621,1.9935,1.9902,1.9945,1.9989,2.03,2.0305,2.0309,2.0229,2.0228,2.0228,0,0,0,0,0,0,1.8694,1.8747,1.8789,1.8976,1.9035,1.9252,1.9286,1.9319,1.9403,1.9411,1.9597,1.9627,1.9726,1.9888,1.9925,1.9965,1.9945,2.0302,2.0306,2.0309,2.0229,2.0228,2.0228,0,0,0,0,0,1.8709,1.8752,1.9133,1.8976,1.9027,1.9194,1.9284,1.9311,1.9379,1.9554,1.9585,1.9455,1.9724,1.9763,1.9911,1.9945,1.992,1.9933,2.0304,2.0307,2.031,2.0228,0,0,0,0,0,0,1.872,1.8779,1.9146,1.9166,1.8954,1.9184,1.9224,1.9304,1.9518,1.955,1.9418,1.9422,1.9724,1.9754,1.9783,1.9932,1.99,1.9914,1.9922,2.0307,2.0309,2.0311,0,0,0,0,0,0,1.8757,1.8795,1.9156,1.9122,1.914,1.9174,1.921,1.9351,1.9519,1.9371,1.9381,1.9417,1.9681,1.9748,1.9771,1.9988,1.9885,1.9898,1.9907,1.9912,2.0308,2.031,0,0,0,0,0,0,1.8775,1.8808,1.9118,1.9131,1.9146,1.9378,1.9302,1.9559,1.9488,1.936,1.9485,1.9483,1.9673,1.9699,1.9762,1.9969,1.9983,1.9885,1.9894,1.99,1.9904,0,0,0,0,0,0,0,1.879,1.8543,1.9028,1.9138,1.9151,1.9349,1.9355,1.936,1.9488,1.9486,1.9485,1.9484,1.9812,1.9826,1.984,1.9953,0,0,1.9884,1.989,0,0,0,0,0,0,0,0,1.8532,1.8541,1.9029,1.9033,1.9037,1.935,1.9355,1.9359,1.9487,1.9486,1.9485,1.9484,1.9815,1.9827,1.9838,0,0,0,0,0,0,0,0,0,0,0,0,0,0,0,1.9029,1.9032,0,1.9351,1.9354,1.9358,1.9487,1.9486,1.9486,1.9485,1.9819,1.9828,1.9838,0,0,0,0,0,0,0,0,0,0,0,0,0,0,0,0,0,0,0,0,0,0,0,0,0,0,0,0,0,0,0,0,0,0,0,0,0,0,0,0,0,0,0,0,0,0,0,0,0,0,0,0,0,0,0,0,0,0,0,0,0,0,0,0,0,0,0,0,0]}],[{"header":{"parameterUnit":"kt","parameterCategory":2,"dx":1,"dy":1,"la1":30.253999710083008,"la2":30.299108505249023,"lo1":-89.0895004272461,"lo2":-89.04439544677734,"nx":28,"ny":28,"refTime":"2022-10-06T21:00:00:Z","depth":0,"parameterNumber":2,"parameterNumberName":"V-component_of_WINDS"},"data":[4.5046,4.514,4.5171,4.5289,4.5337,4.5421,4.5461,4.5514,4.5564,4.5664,4.5726,4.5765,4.5824,4.5902,4.5967,4.5982,4.6006,4.6013,4.6029,4.5975,4.5969,4.5963,4.5945,4.6019,4.6019,4.608,4.6081,4.6081,4.4988,4.5038,4.5113,4.5206,4.5267,4.5278,4.5352,4.5401,4.5476,4.554,4.5605,4.5695,4.5769,4.5829,4.5904,4.5941,4.595,4.5959,4.5956,4.5964,4.5907,4.5887,4.595,4.595,4.595,4.595,4.595,4.595,4.4892,4.4948,4.5025,4.5107,4.5163,4.5224,4.5282,4.5332,4.5403,4.5492,4.5516,4.5601,4.5669,4.5778,4.5822,4.5884,4.588,4.59,4.5904,4.5907,4.5905,4.5801,4.5899,4.5899,4.5899,4.5899,4.5899,0,4.483,4.4854,4.4932,4.5016,4.5078,4.5147,4.5216,4.5252,4.5315,4.5371,4.5454,4.5507,4.561,4.5689,4.5768,4.5812,4.5828,4.5836,4.5848,4.5836,4.5811,4.582,4.5721,4.5833,4.5833,4.5832,4.5832,4.5832,4.4731,4.4797,4.4897,4.4945,4.4994,4.5073,4.5125,4.5178,4.5231,4.5321,4.5366,4.5449,4.5518,4.5644,4.5701,4.5777,4.5786,4.5823,4.5798,4.578,4.5781,4.5775,4.5779,4.5827,4.5828,4.5828,4.5829,0,4.4669,4.4729,4.4842,4.4938,4.4963,4.5027,4.5106,4.5164,4.5209,4.5294,4.5317,4.5387,4.5468,4.5521,4.5624,4.5648,4.574,4.5749,4.5714,4.5717,4.5753,4.5747,4.5871,4.5887,4.5815,4.5815,4.5816,0,4.4606,4.4692,4.4774,4.4838,4.4931,4.4985,4.5074,4.5123,4.5191,4.5259,4.529,4.5352,4.5413,4.5481,4.5518,4.5603,4.5625,4.5647,4.5655,4.5643,4.564,4.5671,4.5666,4.5679,4.5678,4.5678,4.5677,0,4.4502,4.4652,4.4755,4.4799,4.4912,4.4958,4.5006,4.5085,4.5138,4.5215,4.5248,4.5333,4.5379,4.5441,4.5489,4.5468,4.5597,4.558,4.562,4.5618,4.5647,4.5644,4.574,4.5676,4.5676,4.5676,4.5676,0,4.4462,4.4545,4.469,4.4783,4.4821,4.489,4.4979,4.5053,4.5132,4.5162,4.5224,4.5253,4.5339,4.5315,4.5431,4.539,4.5431,4.5463,4.5467,4.5477,4.545,4.5492,4.5582,4.5591,4.5483,4.5482,4.548,0,4.4321,4.4488,4.4539,4.4676,4.476,4.4791,4.4868,4.4942,4.4989,4.5063,4.5114,4.52,4.5195,4.523,4.528,4.5335,4.5388,4.533,4.5426,4.5429,4.54,4.5484,4.5483,4.5556,4.5461,4.5463,4.5465,0,4.4223,4.4369,4.4391,4.4442,4.4556,4.4629,4.4719,4.4819,4.4865,4.4949,4.5021,4.5146,4.5145,4.5205,4.524,4.529,4.5353,4.5284,4.5287,4.529,4.5459,4.5456,4.5468,4.5364,4.5367,4.5368,4.5449,0,4.4135,4.4232,4.4295,4.4417,4.4484,4.4577,4.4645,4.4705,4.4732,4.4783,4.4895,4.4976,4.5078,4.5111,4.514,4.524,4.5232,4.5233,4.5215,4.5271,4.5299,4.5311,4.5167,4.5167,4.5167,4.5167,0,0,4.3983,4.4126,4.4186,4.4281,4.4341,4.4378,4.4471,4.4533,4.4661,4.4699,4.469,4.4879,4.4947,4.5076,4.5098,4.5143,4.5164,4.5146,4.5245,4.5254,4.5262,4.529,4.5302,4.5167,4.5167,4.5167,4.5167,0,4.3967,4.4044,4.414,4.4208,4.4314,4.4366,4.4388,4.45,4.4538,4.4654,4.4682,4.4757,4.4914,4.4978,4.5032,4.5131,4.5147,4.5158,4.5186,4.5242,4.5251,4.5258,4.5288,4.5298,4.5167,4.5167,4.5167,0,4.3878,4.3963,4.4019,4.4167,4.4237,4.4327,4.4325,4.4424,4.4489,4.4528,4.4643,4.4698,4.4794,4.4911,4.4967,4.496,4.5127,4.5091,4.5094,4.5101,4.5158,4.5168,4.5177,4.5057,4.5056,4.5055,0,0,4.3854,4.3949,4.406,4.417,4.4211,4.4294,4.4352,4.4388,4.4478,4.4514,4.4587,4.467,4.4759,4.4818,4.4907,4.5028,4.5049,4.5075,4.508,4.5084,4.5093,4.5151,4.5162,4.5053,4.5053,4.5053,0,0,4.3843,4.3978,4.3993,4.4131,4.4215,4.4332,4.4394,4.4414,4.4504,4.4502,4.4567,4.4593,4.4705,4.476,4.4717,4.4901,4.4883,4.4895,4.4862,4.487,4.4875,4.4859,4.4727,0,0,0,0,0,4.3865,4.396,4.3973,4.4008,4.4198,4.4324,4.4348,4.4407,4.439,4.4437,4.45,4.4518,4.4748,4.4712,4.4743,4.479,4.502,4.5026,4.5032,4.5019,4.5026,4.5032,0,0,0,0,0,0,4.388,4.3922,4.3971,4.4091,4.4134,4.4322,4.4306,4.4324,4.4387,4.4388,4.4505,4.4522,4.4572,4.47,4.4727,4.4771,4.4718,4.5023,4.5027,4.5032,4.5021,4.5027,4.5032,0,0,0,0,0,4.3891,4.3925,4.4217,4.409,4.4128,4.4227,4.4303,4.4318,4.4368,4.447,4.4488,4.4406,4.4572,4.4599,4.4717,4.4757,4.47,4.471,4.5026,4.503,4.5033,4.5024,0,0,0,0,0,0,4.3899,4.3938,4.4226,4.4239,4.4061,4.4218,4.4245,4.4313,4.4447,4.4465,4.4374,4.4374,4.4573,4.4594,4.4614,4.4749,4.4685,4.4695,4.4701,4.5029,4.5032,4.5034,0,0,0,0,0,0,4.392,4.3949,4.4233,4.4193,4.4203,4.4209,4.4233,4.4344,4.4448,4.4343,4.4347,4.4373,4.4541,4.459,4.4606,4.4777,4.4674,4.4683,4.469,4.4694,4.5031,4.5034,0,0,0,0,0,0,4.3933,4.3958,4.419,4.4197,4.4206,4.436,4.4307,4.4499,4.4416,4.4337,4.441,4.4407,4.4538,4.4555,4.4601,4.4764,4.4774,4.4674,4.4681,4.4685,4.4688,0,0,0,0,0,0,0,4.3944,4.3765,4.4146,4.4201,4.4208,4.4363,4.4367,4.4371,4.4416,4.4413,4.4411,4.4409,4.4619,4.463,4.464,4.4754,0,0,4.4673,4.4678,0,0,0,0,0,0,0,0,4.3756,4.3763,4.4147,4.415,4.4152,4.4364,4.4367,4.437,4.4415,4.4413,4.4411,4.441,4.4622,4.463,4.4639,0,0,0,0,0,0,0,0,0,0,0,0,0,0,0,4.4147,4.415,0,4.4364,4.4367,4.4369,4.4415,4.4413,4.4412,4.441,4.4624,4.4631,4.4638,0,0,0,0,0,0,0,0,0,0,0,0,0,0,0,0,0,0,0,0,0,0,0,0,0,0,0,0,0,0,0,0,0,0,0,0,0,0,0,0,0,0,0,0,0,0,0,0,0,0,0,0,0,0,0,0,0,0,0,0,0,0,0,0,0,0,0,0,0]}]]]